User: anonymous   Login
Location: Armidale
(30.5016°S, 151.6662°E)
Time: 12:12:44
(UTC+10:00)
Language:

CAS-4B - Orbit

View from above orbital plane
View from above orbital plane
View from above satellite
View from above satellite

Ground track
Ground track

The orbit data is extracted from the following two-line orbital elements,

1 42759U 17034B   21208.64699603  .00000899  00000-0  67266-4 0  9995
2 42759  43.0183 320.1012 0007852  46.2533  87.7101 15.10286420227220
Epoch (UTC): 27 July 2021 15:31:40
Eccentricity: 0.0007852
inclination: 43.0183°
perigee height: 530 km
apogee height: 541 km
right ascension of ascending node: 320.1012°
argument of perigee: 46.2533°
revolutions per day: 15.10286420
mean anomaly at epoch: 87.7101°
orbit number at epoch: 22722

The dashed part of the orbit path shows where the satellite is in the earth's shadow,  

DLR